Regional Weather Roundup
Issued by NWS

Home | Current Version | Previous Version | Text Only | Print | Product List | Glossary Off
Versions: 1 2 3 4 5 6 7 8 9 10 11 12 13 14 15 16 17 18 19 20 21 22 23 24 25 26 27 28 29 30 31 32 33 34 35 36 37 38 39 40 41 42 43 44 45 46 47 48 49 50

000
ASUS43 KLOT 010206
RWRIL

ILLINOIS REGIONAL WEATHER ROUNDUP
NATIONAL WEATHER SERVICE CHICAGO/ROMEOVILLE IL
900 PM CDT TUE SEP 30 2014

NOTE: "FAIR" INDICATES FEW OR NO CLOUDS BELOW 12,000 FEET WITH NO
SIGNIFICANT WEATHER AND/OR OBSTRUCTIONS TO VISIBILITY.

* THESE STATIONS ARE NOT UNDER NWS QUALITY CONTROL. THEY ALSO MAY NOT
  REPORT WEATHER SUCH AS PRECIPITATION OR FOG.

ILZ001-002-007-009-015-016-024-010300-
NORTHWEST ILLINOIS

CITY           SKY/WX    TMP DP  RH WIND       PRES   REMARKS
MOLINE         NOT AVBL
SAVANNA*       PTCLDY    53  45  73 E6        29.99S
$$

ILZ003-004-008-010-011-017-018-010300-
NORTH CENTRAL ILLINOIS

CITY           SKY/WX    TMP DP  RH WIND       PRES   REMARKS
ROCKFORD       MOCLDY    49  43  80 E6        30.05R
FREEPORT*      CLEAR     46  44  90 E7        30.03S
ROCHELLE*      PTCLDY    47  44  90 E5        30.03R
DE KALB*       CLOUDY    51  45  79 E9        30.04R
PERU*          MOCLDY    54  47  77 E9        30.01S
$$

ILZ005-006-012>014-019>023-010300-
NORTHEAST ILLINOIS

CITY           SKY/WX    TMP DP  RH WIND       PRES   REMARKS
CHICAGO-OHARE  CLOUDY    54  49  83 N5        30.02R
CHICAGO-MIDWAY CLOUDY    58  49  72 E8        30.02R
AURORA         CLOUDY    54  46  74 NE6       30.03R
LANSING*       CLOUDY    55  47  74 NE6       30.02R
JOLIET*        CLOUDY    54  49  83 NE5       30.02S
WAUKEGAN       CLOUDY    52  50  93 N3        30.03R
DUPAGE AIRPORT CLOUDY    53  48  83 NE6       30.02R
KANKAKEE*      CLOUDY    54  47  79 NE5       30.02S
WHEELING       CLOUDY    55  50  83 N3        30.03S
MORRIS*        CLOUDY    54  49  85 NE5       30.01S
ROMEOVILLE*    CLOUDY    54  49  82 NE6       30.02S
NORTHERLY ISL    N/A     56  48  74 NE10        N/A
$$

LMZ740>746-010300-
SOUTHERN LAKE MICHIGAN

STATION/POSITION SKY/WX   TEMP    WIND        PRES    VSBY  WAVE
                          AIR SEA DIR/SP/G                  HT/PER
                          (F)     (DEG/KT/KT) (MB)    (MI)  (FT/S)
SOUTHERN BUOY              56 61   50/  8/ 12 1017.1R         3/ 6
WAUKEGAN HARBOR            55      50/  8/ 10   N/A
HARRISON CRIB              56      70/ 10/ 13   N/A
BURNHAM HARBOR             56      70/ 10/ 13   N/A
CALUMET HARBOR             56      20/  6/ 10 1015.4S
MICHIGAN CITY              54      60/  8/ 10   N/A
MICHIGAN CITY 6N           55 64  100/ 10/ 12   N/A           3/ 2
ST. JOSEPH                 55 62   80/  6/  8   N/A           3/ 2
$$

ILZ025>027-034>036-040-047-049-050-058-095>099-010300-
WEST-CENTRAL ILLINOIS

CITY           SKY/WX    TMP DP  RH WIND       PRES   REMARKS
QUINCY         CLEAR     65  58  78 E9        29.90R
GALESBURG*     CLEAR     59  50  73 E9        29.95S
MACOMB*        CLEAR     59  55  84 E6        29.95S
JACKSONVILLE*  CLEAR     66  58  75 NE10      29.93R
PITTSFIELD*    CLEAR     65  58  79 NE5       29.91S
$$

ILZ028>032-037-038-041>044-048-051>054-059>061-010300-
CENTRAL ILLINOIS

CITY           SKY/WX    TMP DP  RH WIND       PRES   REMARKS
PONTIAC        CLEAR     54  48  82 E3        30.01R
BLOOMINGTON    CLEAR     56  49  77 E10         N/A
DECATUR        CLEAR     60  52  74 NE10      29.96R
PEORIA         CLEAR     61  48  62 E14       29.96S
LACON*         CLEAR     54  47  77 E10       29.98S
LINCOLN*       CLEAR     62  52  70 NE8       29.94R
SPRINGFIELD    CLEAR     62  56  80 NE7       29.94R
TAYLORVILLE    CLEAR     64  54  68 E9        29.93R
$$

ILZ033-039-045-046-055>057-062-063-010300-
EAST-CENTRAL ILLINOIS

CITY           SKY/WX    TMP DP  RH WIND       PRES   REMARKS
CHAMPAIGN      CLEAR     57  48  72 NE13G20   29.98
DANVILLE*      CLEAR     53  48  84 NE8       29.96S
RANTOUL*       CLEAR     57  48  72 NE9       30.00R
MATTOON        CLEAR     60  53  77 E5        29.95R
PARIS*         CLEAR     59  52  78 NE5       29.98R
$$

ILZ079-100>102-010300-
SOUTHWEST ILLINOIS

CITY           SKY/WX    TMP DP  RH WIND       PRES   REMARKS
ALTON          CLEAR     66  59  77 E7        29.90R
BELLEVILLE     CLEAR     70  62  75 E6        29.89R
CAHOKIA*       CLEAR     71  60  68 SE5       29.89R
SPARTA*          N/A     68  58  69 CALM      29.91R HAZE
$$

ILZ064>066-069>071-074>076-080>082-084>086-088>090-092>094-010300-
SOUTH-CENTRAL ILLINOIS

CITY           SKY/WX    TMP DP  RH WIND       PRES   REMARKS
CARBONDALE     CLEAR     61  57  87 CALM      29.90R
CAIRO*         PTCLDY    63  58  82 CALM      29.89S
EFFINGHAM*     HVY RAIN  65  55  67 NE6       29.93S
MARION         CLEAR     66  57  72 CALM      29.91S
CENTRALIA*     CLEAR     63  58  84 CALM      29.92R
SALEM*         CLEAR     70  62  78 NE3       29.92R
METROPOLIS*    CLEAR     61  58  88 CALM      29.89S
$$

ILZ067-068-072-073-078-083-087-091-010300-
SOUTHEAST ILLINOIS

CITY           SKY/WX    TMP DP  RH WIND       PRES   REMARKS
LAWRENCEVILLE  PTCLDY    65  60  84 NE9       29.94R
FLORA*         PTCLDY    67  59  76 NE6       29.93R
FAIRFIELD*     CLEAR     68  61  77 CALM      29.91S
HARRISBURG*    CLEAR     66  61  84 CALM      29.92R
ROBINSON*      PTCLDY    63  59  88 NE5       29.95R
CARMI*         CLEAR     64  60  87 CALM      29.91R
$$

ABBREVIATIONS USED IN REMARKS
   TC - TEMPERATURE IN CELSIUS
  WCI - WIND CHILL INDEX
   HX - HEAT INDEX
  VSB - VISIBILITY
$$



USA.gov is the U.S. government's official web portal to all federal, state and local government web resources and services.